Time,TemperatureF,DewpointF,PressureIn,WindDirection,WindDirectionDegrees,WindSpeedMPH,WindSpeedGustMPH,Humidity,HourlyPrecipIn,Conditions,Clouds,dailyrainin,SolarRadiationWatts/m^2,SoftwareType,DateUTC
2013-02-16 00:04:00,81.2,75.6,29.74,ENE,63,17.0,20.0,83,0.00,,FEW027,0.00,0.00,VWS V14.01,2013-02-15 14:04:00,
2013-02-16 00:09:00,81.1,75.4,29.74,ENE,57,18.0,21.0,83,0.00,,FEW027,0.00,0.00,VWS V14.01,2013-02-15 14:09:00,
2013-02-16 00:14:00,81.0,75.3,29.74,NE,56,20.0,21.0,83,0.00,,FEW027,0.00,0.00,VWS V14.01,2013-02-15 14:14:00,
2013-02-16 00:19:00,81.1,75.4,29.73,ENE,57,20.0,22.0,83,0.00,,FEW027,0.00,0.00,VWS V14.01,2013-02-15 14:19:00,
2013-02-16 00:24:00,81.1,75.4,29.73,NE,45,22.0,22.0,83,0.00,,FEW027,0.00,0.00,VWS V14.01,2013-02-15 14:24:00,
2013-02-16 00:29:00,81.1,75.4,29.73,NE,47,15.0,23.0,83,0.00,,FEW027,0.00,0.00,VWS V14.01,2013-02-15 14:29:00,
2013-02-16 00:34:00,81.2,75.6,29.73,NE,45,18.0,21.0,83,0.00,,FEW027,0.00,0.00,VWS V14.01,2013-02-15 14:34:00,
2013-02-16 00:39:00,81.1,75.1,29.73,NE,53,17.0,23.0,82,0.00,,FEW027,0.00,0.00,VWS V14.01,2013-02-15 14:39:00,
2013-02-16 00:44:00,81.2,75.9,29.73,NE,44,17.0,23.0,84,0.00,,FEW027,0.00,0.00,VWS V14.01,2013-02-15 14:44:00,
2013-02-16 00:49:00,81.1,75.4,29.73,NE,50,20.0,25.0,83,0.00,,FEW027,0.00,0.00,VWS V14.01,2013-02-15 14:49:00,
2013-02-16 00:54:00,81.1,75.4,29.73,ENE,61,22.0,25.0,83,0.00,,FEW027,0.00,0.00,VWS V14.01,2013-02-15 14:54:00,
2013-02-16 00:59:00,81.2,75.6,29.73,NE,51,23.0,25.0,83,0.00,,FEW027,0.00,0.00,VWS V14.01,2013-02-15 14:59:00,
2013-02-16 01:04:00,81.1,75.4,29.73,NE,56,19.0,23.0,83,0.00,,FEW025,0.00,0.00,VWS V14.01,2013-02-15 15:04:00,
2013-02-16 01:09:00,81.1,75.1,29.73,NE,53,18.0,23.0,82,0.00,,FEW025,0.00,0.00,VWS V14.01,2013-02-15 15:09:00,
2013-02-16 01:14:00,81.2,75.2,29.73,NE,51,17.0,23.0,82,0.00,,FEW025,0.00,0.00,VWS V14.01,2013-02-15 15:14:00,
2013-02-16 01:19:00,81.1,75.1,29.72,ENE,59,20.0,23.0,82,0.00,,FEW025,0.00,0.00,VWS V14.01,2013-02-15 15:19:00,
2013-02-16 01:24:00,81.2,75.6,29.72,NE,45,18.0,23.0,83,0.00,,FEW025,0.00,0.00,VWS V14.01,2013-02-15 15:24:00,
2013-02-16 01:29:00,81.2,75.2,29.72,NE,56,20.0,23.0,82,0.00,,FEW025,0.00,0.00,VWS V14.01,2013-02-15 15:29:00,
2013-02-16 01:34:00,81.1,75.1,29.72,ENE,59,18.0,22.0,82,0.00,,FEW025,0.00,0.00,VWS V14.01,2013-02-15 15:34:00,
2013-02-16 01:40:00,81.1,75.4,29.72,NE,54,16.0,22.0,83,0.00,,FEW025,0.00,0.00,VWS V14.01,2013-02-15 15:40:00,
2013-02-16 01:45:00,81.1,75.4,29.72,NE,56,21.0,23.0,83,0.00,,FEW025,0.00,0.00,VWS V14.01,2013-02-15 15:45:00,
2013-02-16 01:50:00,81.1,75.4,29.71,NE,52,21.0,21.0,83,0.00,,FEW025,0.00,0.00,VWS V14.01,2013-02-15 15:50:00,
2013-02-16 01:55:00,81.1,75.4,29.71,NE,43,17.0,22.0,83,0.00,,FEW025,0.00,0.00,VWS V14.01,2013-02-15 15:55:00,
2013-02-16 02:00:00,81.1,75.8,29.71,NE,43,16.0,22.0,84,0.00,,FEW025,0.00,0.00,VWS V14.01,2013-02-15 16:00:00,
2013-02-16 02:05:00,81.0,75.7,29.70,NE,51,20.0,22.0,84,0.00,,SCT032,0.00,0.00,VWS V14.01,2013-02-15 16:05:00,
2013-02-16 02:10:00,81.1,75.8,29.70,ENE,61,19.0,22.0,84,0.00,,SCT032,0.00,0.00,VWS V14.01,2013-02-15 16:10:00,
2013-02-16 02:15:00,81.1,75.8,29.70,NE,51,18.0,22.0,84,0.00,,SCT032,0.00,0.00,VWS V14.01,2013-02-15 16:15:00,
2013-02-16 02:20:00,81.0,75.7,29.70,NE,55,18.0,23.0,84,0.00,,SCT032,0.00,0.00,VWS V14.01,2013-02-15 16:20:00,
2013-02-16 02:25:00,81.0,75.7,29.70,NE,44,19.0,23.0,84,0.00,,SCT032,0.00,0.00,VWS V14.01,2013-02-15 16:25:00,
2013-02-16 02:30:00,81.0,75.7,29.70,ENE,57,19.0,23.0,84,0.00,,SCT032,0.00,0.00,VWS V14.01,2013-02-15 16:30:00,
2013-02-16 02:35:00,81.0,75.7,29.69,NE,52,20.0,23.0,84,0.00,,SCT032,0.00,0.00,VWS V14.01,2013-02-15 16:35:00,
2013-02-16 02:40:00,81.1,76.2,29.69,NE,46,18.0,24.0,85,0.00,,SCT032,0.00,0.00,VWS V14.01,2013-02-15 16:40:00,
2013-02-16 02:45:00,81.2,76.3,29.69,NE,56,17.0,24.0,85,0.00,,SCT032,0.00,0.00,VWS V14.01,2013-02-15 16:45:00,
2013-02-16 02:50:00,81.2,76.3,29.69,NE,46,18.0,22.0,85,0.00,,SCT032,0.00,0.00,VWS V14.01,2013-02-15 16:50:00,
2013-02-16 02:55:00,81.1,75.8,29.69,NE,51,18.0,23.0,84,0.00,,SCT032,0.00,0.00,VWS V14.01,2013-02-15 16:55:00,
2013-02-16 03:00:00,81.0,75.7,29.69,NE,53,19.0,23.0,84,0.00,,SCT032,0.00,0.00,VWS V14.01,2013-02-15 17:00:00,
2013-02-16 03:05:00,81.0,75.7,29.69,NE,54,17.0,21.0,84,0.00,,FEW027,0.00,0.00,VWS V14.01,2013-02-15 17:05:00,
2013-02-16 03:10:00,81.0,75.7,29.69,NE,46,21.0,23.0,84,0.00,,FEW027,0.00,0.00,VWS V14.01,2013-02-15 17:10:00,
2013-02-16 03:15:00,81.1,76.2,29.69,NE,42,19.0,23.0,85,0.00,,FEW027,0.00,0.00,VWS V14.01,2013-02-15 17:15:00,
2013-02-16 03:20:00,81.0,76.1,29.68,NE,53,19.0,20.0,85,0.00,,FEW027,0.00,0.00,VWS V14.01,2013-02-15 17:20:00,
2013-02-16 03:25:00,81.0,76.4,29.68,NE,52,18.0,21.0,86,0.00,,FEW027,0.00,0.00,VWS V14.01,2013-02-15 17:25:00,
2013-02-16 03:31:00,81.1,76.5,29.68,NE,49,21.0,23.0,86,0.00,,FEW027,0.00,0.00,VWS V14.01,2013-02-15 17:31:00,
2013-02-16 03:36:00,81.0,76.4,29.68,ENE,59,19.0,24.0,86,0.00,,FEW027,0.00,0.00,VWS V14.01,2013-02-15 17:36:00,
2013-02-16 03:41:00,81.0,76.4,29.68,NE,47,19.0,24.0,86,0.00,,FEW027,0.00,0.00,VWS V14.01,2013-02-15 17:41:00,
2013-02-16 03:46:00,80.9,76.3,29.68,NE,51,18.0,24.0,86,0.00,,FEW027,0.00,0.00,VWS V14.01,2013-02-15 17:46:00,
2013-02-16 03:51:00,81.0,76.4,29.68,NE,48,19.0,21.0,86,0.00,,FEW027,0.00,0.00,VWS V14.01,2013-02-15 17:51:00,
2013-02-16 03:56:00,81.1,76.5,29.68,ENE,62,20.0,21.0,86,0.00,,FEW027,0.00,0.00,VWS V14.01,2013-02-15 17:56:00,
2013-02-16 04:01:00,81.1,76.5,29.67,ENE,59,20.0,23.0,86,0.00,,FEW024,0.00,0.00,VWS V14.01,2013-02-15 18:01:00,
2013-02-16 04:06:00,81.0,76.1,29.67,ENE,69,17.0,22.0,85,0.00,,FEW024,0.00,0.00,VWS V14.01,2013-02-15 18:06:00,
2013-02-16 04:11:00,81.0,76.4,29.67,NE,54,19.0,22.0,86,0.00,,FEW024,0.00,0.00,VWS V14.01,2013-02-15 18:11:00,
2013-02-16 04:16:00,80.2,76.0,29.68,East,80,20.0,25.0,87,0.00,,FEW024,0.00,0.00,VWS V14.01,2013-02-15 18:16:00,
2013-02-16 04:21:00,79.7,76.2,29.68,NE,55,14.0,21.0,89,0.00,,FEW024,0.00,0.00,VWS V14.01,2013-02-15 18:21:00,
2013-02-16 04:26:00,79.6,76.1,29.68,NE,56,14.0,21.0,89,0.00,,FEW024,0.00,0.00,VWS V14.01,2013-02-15 18:26:00,
2013-02-16 04:31:00,79.8,76.6,29.68,NE,53,15.0,21.0,90,0.00,,FEW024,0.00,0.00,VWS V14.01,2013-02-15 18:31:00,
2013-02-16 04:36:00,79.8,76.3,29.68,ENE,59,18.0,20.0,89,0.00,,FEW024,0.00,0.00,VWS V14.01,2013-02-15 18:36:00,
2013-02-16 04:41:00,79.6,75.7,29.68,ENE,65,16.0,20.0,88,0.00,,FEW024,0.00,0.00,VWS V14.01,2013-02-15 18:41:00,
2013-02-16 04:46:00,79.8,75.9,29.69,ENE,59,15.0,20.0,88,0.00,,FEW024,0.00,0.00,VWS V14.01,2013-02-15 18:46:00,
2013-02-16 04:51:00,80.0,76.1,29.69,ENE,60,15.0,19.0,88,0.00,,FEW024,0.00,0.00,VWS V14.01,2013-02-15 18:51:00,
2013-02-16 04:56:00,80.2,76.3,29.69,ENE,65,16.0,19.0,88,0.00,,FEW024,0.00,0.00,VWS V14.01,2013-02-15 18:56:00,
2013-02-16 05:01:00,80.2,76.3,29.69,ENE,59,14.0,19.0,88,0.00,,BKN060,0.00,0.00,VWS V14.01,2013-02-15 19:01:00,
2013-02-16 05:06:00,80.3,76.4,29.69,ENE,57,12.0,18.0,88,0.00,,BKN060,0.00,0.00,VWS V14.01,2013-02-15 19:06:00,
2013-02-16 05:11:00,80.5,76.6,29.69,NE,55,16.0,18.0,88,0.00,,BKN060,0.00,0.00,VWS V14.01,2013-02-15 19:11:00,
2013-02-16 05:16:00,80.6,76.4,29.69,NE,44,19.0,22.0,87,0.00,,BKN060,0.00,0.00,VWS V14.01,2013-02-15 19:16:00,
2013-02-16 05:22:00,80.7,76.1,29.69,NE,38,15.0,21.0,86,0.00,,BKN060,0.00,0.00,VWS V14.01,2013-02-15 19:22:00,
2013-02-16 05:27:00,80.8,76.2,29.69,NE,39,16.0,21.0,86,0.00,,BKN060,0.00,0.00,VWS V14.01,2013-02-15 19:27:00,
2013-02-16 05:32:00,80.8,76.6,29.69,NE,52,15.0,21.0,87,0.00,,BKN060,0.00,0.00,VWS V14.01,2013-02-15 19:32:00,
2013-02-16 05:37:00,80.9,76.7,29.69,NE,42,17.0,19.0,87,0.00,,BKN060,0.00,0.00,VWS V14.01,2013-02-15 19:37:00,
2013-02-16 05:42:00,80.9,76.3,29.69,ENE,57,20.0,23.0,86,0.00,,BKN060,0.00,0.00,VWS V14.01,2013-02-15 19:42:00,
2013-02-16 05:47:00,80.9,76.0,29.70,NE,44,20.0,23.0,85,0.00,,BKN060,0.00,0.00,VWS V14.01,2013-02-15 19:47:00,
2013-02-16 05:52:00,81.1,76.2,29.70,ENE,69,18.0,21.0,85,0.00,,BKN060,0.00,0.00,VWS V14.01,2013-02-15 19:52:00,
2013-02-16 05:57:00,81.1,75.8,29.70,ENE,59,15.0,21.0,84,0.00,,BKN060,0.00,0.00,VWS V14.01,2013-02-15 19:57:00,
2013-02-16 06:02:00,81.2,76.3,29.70,ENE,65,15.0,21.0,85,0.00,,SCT035,0.00,0.00,VWS V14.01,2013-02-15 20:02:00,
2013-02-16 06:07:00,81.1,75.8,29.70,NE,55,18.0,18.0,84,0.00,,SCT035,0.00,0.00,VWS V14.01,2013-02-15 20:07:00,
2013-02-16 06:12:00,81.1,75.8,29.70,NE,53,16.0,19.0,84,0.00,,SCT035,0.00,0.00,VWS V14.01,2013-02-15 20:12:00,
2013-02-16 06:17:00,81.3,76.0,29.71,NE,47,13.0,13.0,84,0.00,,SCT035,0.00,0.00,VWS V14.01,2013-02-15 20:17:00,
2013-02-16 06:22:00,81.3,76.4,29.71,ENE,62,14.0,17.0,85,0.00,,SCT035,0.00,0.00,VWS V14.01,2013-02-15 20:22:00,
2013-02-16 06:27:00,81.2,75.9,29.71,ENE,67,16.0,19.0,84,0.00,,SCT035,0.00,0.00,VWS V14.01,2013-02-15 20:27:00,
2013-02-16 06:32:00,81.2,75.9,29.71,NE,53,18.0,18.0,84,0.00,,SCT035,0.00,0.00,VWS V14.01,2013-02-15 20:32:00,
2013-02-16 06:37:00,81.2,76.3,29.71,NE,55,12.0,18.0,85,0.00,,SCT035,0.00,0.00,VWS V14.01,2013-02-15 20:37:00,
2013-02-16 06:42:00,81.1,76.2,29.71,ENE,60,12.0,18.0,85,0.00,,SCT035,0.00,0.00,VWS V14.01,2013-02-15 20:42:00,
2013-02-16 06:47:00,81.3,76.7,29.72,NE,44,19.0,19.0,86,0.00,,SCT035,0.00,0.00,VWS V14.01,2013-02-15 20:47:00,
2013-02-16 06:52:00,81.0,76.8,29.72,NE,50,17.0,20.0,87,0.00,,SCT035,0.00,5.00,VWS V14.01,2013-02-15 20:52:00,
2013-02-16 06:57:00,80.5,76.3,29.72,NE,44,20.0,20.0,87,0.00,,SCT035,0.00,5.00,VWS V14.01,2013-02-15 20:57:00,
2013-02-16 07:02:00,79.8,76.3,29.73,NE,54,15.0,20.0,89,0.00,,OVC060,0.00,5.00,VWS V14.01,2013-02-15 21:02:00,
2013-02-16 07:07:00,79.2,75.7,29.73,NE,51,12.0,20.0,89,0.01,,OVC060,0.01,16.00,VWS V14.01,2013-02-15 21:07:00,
2013-02-16 07:12:00,79.4,76.2,29.73,ENE,59,15.0,20.0,90,0.01,,OVC060,0.01,18.00,VWS V14.01,2013-02-15 21:12:00,
2013-02-16 07:18:00,79.7,76.5,29.73,NE,50,14.0,16.0,90,0.01,,OVC060,0.01,33.00,VWS V14.01,2013-02-15 21:18:00,
2013-02-16 07:23:00,80.0,77.1,29.73,ENE,62,16.0,18.0,91,0.01,,OVC060,0.01,46.00,VWS V14.01,2013-02-15 21:23:00,
2013-02-16 07:28:00,80.1,76.6,29.73,ENE,58,19.0,21.0,89,0.01,,OVC060,0.01,76.00,VWS V14.01,2013-02-15 21:28:00,
2013-02-16 07:33:00,80.1,76.2,29.74,ENE,67,17.0,17.0,88,0.01,,OVC060,0.01,65.00,VWS V14.01,2013-02-15 21:33:00,
2013-02-16 07:38:00,80.2,76.3,29.74,ENE,63,16.0,19.0,88,0.01,,OVC060,0.01,51.00,VWS V14.01,2013-02-15 21:38:00,
2013-02-16 07:43:00,80.4,76.5,29.74,ENE,66,15.0,22.0,88,0.01,,OVC060,0.01,63.00,VWS V14.01,2013-02-15 21:43:00,
2013-02-16 07:48:00,80.2,76.0,29.75,ENE,75,17.0,19.0,87,0.01,,OVC060,0.01,91.00,VWS V14.01,2013-02-15 21:48:00,
2013-02-16 07:53:00,80.1,76.2,29.75,ENE,61,18.0,23.0,88,0.01,,OVC060,0.01,67.00,VWS V14.01,2013-02-15 21:53:00,
2013-02-16 07:58:00,79.9,76.4,29.75,ENE,61,22.0,23.0,89,0.01,,OVC060,0.01,79.00,VWS V14.01,2013-02-15 21:58:00,
2013-02-16 08:03:00,78.9,75.4,29.75,ENE,71,11.0,13.0,89,0.01,,-RA,0.01,62.00,VWS V14.01,2013-02-15 22:03:00,
2013-02-16 08:08:00,78.8,75.6,29.75,East,87,11.0,13.0,90,0.01,,-RA,0.01,77.00,VWS V14.01,2013-02-15 22:08:00,
2013-02-16 08:13:00,78.6,75.4,29.75,East,83,11.0,13.0,90,0.01,,-RA,0.01,70.00,VWS V14.01,2013-02-15 22:13:00,
2013-02-16 08:18:00,78.8,75.9,29.76,East,88,7.0,10.0,91,0.00,,-RA,0.01,72.00,VWS V14.01,2013-02-15 22:18:00,
2013-02-16 08:23:00,78.9,76.4,29.76,ENE,74,10.0,12.0,92,0.00,,-RA,0.01,47.00,VWS V14.01,2013-02-15 22:23:00,
2013-02-16 08:28:00,79.2,76.3,29.76,NE,55,18.0,19.0,91,0.00,,-RA,0.01,65.00,VWS V14.01,2013-02-15 22:28:00,
2013-02-16 08:33:00,79.5,76.3,29.76,ENE,74,16.0,18.0,90,0.00,,-RA,0.01,46.00,VWS V14.01,2013-02-15 22:33:00,
2013-02-16 08:38:00,78.9,76.1,29.76,East,91,20.0,23.0,91,0.00,,-RA,0.01,54.00,VWS V14.01,2013-02-15 22:38:00,
2013-02-16 08:43:00,77.8,75.0,29.76,East,80,11.0,23.0,91,0.01,,-RA,0.02,165.00,VWS V14.01,2013-02-15 22:43:00,
2013-02-16 08:48:00,77.7,75.2,29.77,ENE,59,14.0,16.0,92,0.02,,-RA,0.03,186.00,VWS V14.01,2013-02-15 22:48:00,
2013-02-16 08:53:00,77.5,75.0,29.77,NE,44,10.0,16.0,92,0.02,,-RA,0.03,251.00,VWS V14.01,2013-02-15 22:53:00,
2013-02-16 08:58:00,77.7,75.5,29.77,NE,45,14.0,16.0,93,0.02,,-RA,0.03,253.00,VWS V14.01,2013-02-15 22:58:00,
2013-02-16 09:03:00,78.6,76.4,29.76,NE,36,11.0,13.0,93,0.02,,OVC044,0.03,294.00,VWS V14.01,2013-02-15 23:03:00,
2013-02-16 09:08:00,78.9,76.7,29.76,NE,44,11.0,13.0,93,0.02,,OVC044,0.03,246.00,VWS V14.01,2013-02-15 23:08:00,
2013-02-16 09:13:00,79.3,77.1,29.76,NE,46,14.0,15.0,93,0.02,,OVC044,0.03,323.00,VWS V14.01,2013-02-15 23:13:00,
2013-02-16 09:18:00,79.4,76.9,29.76,NE,46,13.0,14.0,92,0.02,,OVC044,0.03,274.00,VWS V14.01,2013-02-15 23:18:00,
2013-02-16 09:23:00,79.7,77.2,29.76,NE,40,12.0,16.0,92,0.02,,OVC044,0.03,269.00,VWS V14.01,2013-02-15 23:23:00,
2013-02-16 09:28:00,80.0,77.5,29.76,NE,38,15.0,16.0,92,0.02,,OVC044,0.03,243.00,VWS V14.01,2013-02-15 23:28:00,
2013-02-16 09:33:00,80.4,77.9,29.77,NE,36,16.0,18.0,92,0.02,,OVC044,0.03,279.00,VWS V14.01,2013-02-15 23:33:00,
2013-02-16 09:38:00,80.2,77.3,29.77,NE,54,15.0,19.0,91,0.02,,OVC044,0.03,323.00,VWS V14.01,2013-02-15 23:38:00,
2013-02-16 09:43:00,80.5,78.0,29.77,NE,46,15.0,19.0,92,0.02,,OVC044,0.03,429.00,VWS V14.01,2013-02-15 23:43:00,
2013-02-16 09:48:00,80.4,77.5,29.77,NE,42,14.0,17.0,91,0.01,,OVC044,0.03,371.00,VWS V14.01,2013-02-15 23:48:00,
2013-02-16 09:53:00,80.9,78.0,29.77,NE,43,16.0,18.0,91,0.01,,OVC044,0.03,860.00,VWS V14.01,2013-02-15 23:53:00,
2013-02-16 09:58:00,81.2,78.0,29.77,NE,50,16.0,19.0,90,0.01,,OVC044,0.03,861.00,VWS V14.01,2013-02-15 23:58:00,
2013-02-16 10:03:00,81.1,77.9,29.77,NNE,32,13.0,16.0,90,0.00,,BKN031,0.03,350.00,VWS V14.01,2013-02-16 00:03:00,
2013-02-16 10:08:00,80.9,77.4,29.77,NE,37,13.0,19.0,89,0.00,,BKN031,0.03,137.00,VWS V14.01,2013-02-16 00:08:00,
2013-02-16 10:13:00,80.6,77.4,29.77,ENE,60,19.0,25.0,90,0.01,,BKN031,0.04,104.00,VWS V14.01,2013-02-16 00:13:00,
2013-02-16 10:18:00,79.2,76.0,29.78,NE,43,12.0,18.0,90,0.05,,BKN031,0.08,336.00,VWS V14.01,2013-02-16 00:18:00,
2013-02-16 10:23:00,79.0,76.5,29.78,NE,44,12.0,18.0,92,0.05,,BKN031,0.08,236.00,VWS V14.01,2013-02-16 00:23:00,
2013-02-16 10:28:00,79.5,77.3,29.78,NE,48,15.0,18.0,93,0.05,,BKN031,0.08,429.00,VWS V14.01,2013-02-16 00:28:00,
2013-02-16 10:33:00,79.8,77.6,29.78,NE,41,12.0,16.0,93,0.05,,BKN031,0.08,436.00,VWS V14.01,2013-02-16 00:33:00,
2013-02-16 10:38:00,79.7,77.2,29.78,NE,42,12.0,16.0,92,0.05,,BKN031,0.08,299.00,VWS V14.01,2013-02-16 00:38:00,
2013-02-16 10:43:00,79.5,77.0,29.78,NNE,32,12.0,16.0,92,0.05,,BKN031,0.08,202.00,VWS V14.01,2013-02-16 00:43:00,
2013-02-16 10:48:00,79.4,76.9,29.77,NE,46,15.0,15.0,92,0.05,,BKN031,0.08,190.00,VWS V14.01,2013-02-16 00:48:00,
2013-02-16 10:53:00,79.5,77.0,29.77,NE,53,11.0,17.0,92,0.05,,BKN031,0.08,128.00,VWS V14.01,2013-02-16 00:53:00,
2013-02-16 10:58:00,79.5,77.0,29.77,NE,55,10.0,17.0,92,0.05,,BKN031,0.08,104.00,VWS V14.01,2013-02-16 00:58:00,
2013-02-16 11:03:00,79.3,76.8,29.77,East,90,10.0,11.0,92,0.09,,BKN045,0.12,102.00,VWS V14.01,2013-02-16 01:03:00,
2013-02-16 11:08:00,78.6,76.1,29.77,NE,39,6.0,13.0,92,0.23,,BKN045,0.26,171.00,VWS V14.01,2013-02-16 01:08:00,
2013-02-16 11:13:00,78.4,76.2,29.77,ENE,72,7.0,16.0,93,0.25,,BKN045,0.28,383.00,VWS V14.01,2013-02-16 01:13:00,
2013-02-16 11:18:00,78.5,76.6,29.76,NE,53,10.0,15.0,94,0.21,,BKN045,0.28,541.00,VWS V14.01,2013-02-16 01:18:00,
2013-02-16 11:24:00,78.7,76.8,29.76,NE,54,12.0,15.0,94,0.21,,BKN045,0.28,485.00,VWS V14.01,2013-02-16 01:24:00,
2013-02-16 11:29:00,78.7,76.5,29.76,ENE,59,10.0,15.0,93,0.21,,BKN045,0.28,513.00,VWS V14.01,2013-02-16 01:29:00,
2013-02-16 11:34:00,79.1,76.6,29.75,NE,36,11.0,14.0,92,0.20,,BKN045,0.28,592.00,VWS V14.01,2013-02-16 01:34:00,
2013-02-16 11:39:00,79.6,76.8,29.75,NE,52,13.0,15.0,91,0.20,,BKN045,0.28,809.00,VWS V14.01,2013-02-16 01:39:00,
2013-02-16 11:44:00,80.4,77.9,29.75,NNE,32,9.0,19.0,92,0.20,,BKN045,0.28,497.00,VWS V14.01,2013-02-16 01:44:00,
2013-02-16 11:49:00,80.6,78.1,29.75,NNE,26,10.0,17.0,92,0.20,,BKN045,0.28,527.00,VWS V14.01,2013-02-16 01:49:00,
2013-02-16 11:54:00,80.6,78.1,29.75,NE,36,12.0,17.0,92,0.20,,BKN045,0.28,406.00,VWS V14.01,2013-02-16 01:54:00,
2013-02-16 11:59:00,81.1,78.6,29.75,NE,40,12.0,17.0,92,0.20,,BKN045,0.28,1051.00,VWS V14.01,2013-02-16 01:59:00,
2013-02-16 12:04:00,81.1,78.2,29.74,NE,38,8.0,12.0,91,0.20,,-RA,0.28,327.00,VWS V14.01,2013-02-16 02:04:00,
2013-02-16 12:09:00,81.0,78.1,29.74,NE,46,16.0,18.0,91,0.20,,-RA,0.28,192.00,VWS V14.01,2013-02-16 02:09:00,
2013-02-16 12:14:00,80.9,77.7,29.74,NE,49,17.0,19.0,90,0.20,,-RA,0.28,174.00,VWS V14.01,2013-02-16 02:14:00,
2013-02-16 12:19:00,80.5,77.3,29.73,ENE,78,13.0,15.0,90,0.00,,-RA,0.28,111.00,VWS V14.01,2013-02-16 02:19:00,
2013-02-16 12:24:00,79.8,76.9,29.73,East,79,11.0,15.0,91,0.00,,-RA,0.28,197.00,VWS V14.01,2013-02-16 02:24:00,
2013-02-16 12:29:00,79.1,76.2,29.73,East,82,18.0,23.0,91,0.00,,-RA,0.28,63.00,VWS V14.01,2013-02-16 02:29:00,
2013-02-16 12:34:00,78.3,76.1,29.73,East,98,21.0,23.0,93,0.01,,-RA,0.29,62.00,VWS V14.01,2013-02-16 02:34:00,
2013-02-16 12:39:00,78.3,76.4,29.73,East,88,14.0,23.0,94,0.06,,-RA,0.34,74.00,VWS V14.01,2013-02-16 02:39:00,
2013-02-16 12:44:00,78.2,76.3,29.73,East,86,16.0,23.0,94,0.09,,-RA,0.37,181.00,VWS V14.01,2013-02-16 02:44:00,
2013-02-16 12:49:00,78.2,76.3,29.72,East,79,17.0,27.0,94,0.10,,-RA,0.38,229.00,VWS V14.01,2013-02-16 02:49:00,
2013-02-16 12:54:00,78.0,76.1,29.72,ENE,71,15.0,27.0,94,0.13,,-RA,0.41,156.00,VWS V14.01,2013-02-16 02:54:00,
2013-02-16 12:59:00,78.0,76.5,29.72,East,88,17.0,27.0,95,0.14,,-RA,0.42,149.00,VWS V14.01,2013-02-16 02:59:00,
2013-02-16 13:04:00,78.0,76.5,29.72,East,81,16.0,22.0,95,0.15,,BKN041,0.43,192.00,VWS V14.01,2013-02-16 03:04:00,
2013-02-16 13:09:00,78.2,76.7,29.72,ENE,78,14.0,22.0,95,0.16,,BKN041,0.44,316.00,VWS V14.01,2013-02-16 03:09:00,
2013-02-16 13:14:00,78.3,76.8,29.72,ENE,74,14.0,22.0,95,0.16,,BKN041,0.44,105.00,VWS V14.01,2013-02-16 03:14:00,
2013-02-16 13:19:00,78.2,76.7,29.72,NE,37,10.0,16.0,95,0.16,,BKN041,0.44,121.00,VWS V14.01,2013-02-16 03:19:00,
2013-02-16 13:24:00,78.1,76.6,29.72,ENE,60,11.0,16.0,95,0.17,,BKN041,0.45,104.00,VWS V14.01,2013-02-16 03:24:00,
2013-02-16 13:29:00,78.0,76.5,29.72,East,82,18.0,25.0,95,0.18,,BKN041,0.46,67.00,VWS V14.01,2013-02-16 03:29:00,
2013-02-16 13:34:00,77.7,76.2,29.72,ENE,67,20.0,24.0,95,0.20,,BKN041,0.49,193.00,VWS V14.01,2013-02-16 03:34:00,
2013-02-16 13:39:00,77.6,76.1,29.72,East,83,15.0,24.0,95,0.21,,BKN041,0.50,149.00,VWS V14.01,2013-02-16 03:39:00,
2013-02-16 13:44:00,77.7,76.2,29.72,ENE,67,17.0,24.0,95,0.22,,BKN041,0.51,156.00,VWS V14.01,2013-02-16 03:44:00,
2013-02-16 13:49:00,77.3,75.8,29.72,ENE,67,16.0,24.0,95,0.14,,BKN041,0.51,230.00,VWS V14.01,2013-02-16 03:49:00,
2013-02-16 13:54:00,76.9,75.4,29.72,ENE,76,18.0,24.0,95,0.15,,BKN041,0.52,202.00,VWS V14.01,2013-02-16 03:54:00,
2013-02-16 13:59:00,77.1,75.6,29.72,ENE,60,17.0,24.0,95,0.15,,BKN041,0.52,232.00,VWS V14.01,2013-02-16 03:59:00,
2013-02-16 14:04:00,77.1,75.2,29.72,NE,44,18.0,20.0,94,0.10,,BKN030,0.52,424.00,VWS V14.01,2013-02-16 04:04:00,
2013-02-16 14:10:00,77.3,75.8,29.72,NE,36,15.0,20.0,95,0.10,,BKN030,0.52,450.00,VWS V14.01,2013-02-16 04:10:00,
2013-02-16 14:15:00,77.8,76.3,29.72,ENE,57,17.0,20.0,95,0.10,,BKN030,0.52,413.00,VWS V14.01,2013-02-16 04:15:00,
2013-02-16 14:20:00,78.2,76.3,29.71,NE,48,20.0,23.0,94,0.08,,BKN030,0.52,353.00,VWS V14.01,2013-02-16 04:20:00,
2013-02-16 14:25:00,78.7,76.5,29.71,NE,56,17.0,23.0,93,0.08,,BKN030,0.52,230.00,VWS V14.01,2013-02-16 04:25:00,
2013-02-16 14:30:00,78.9,76.7,29.71,NE,53,16.0,23.0,93,0.08,,BKN030,0.52,366.00,VWS V14.01,2013-02-16 04:30:00,
2013-02-16 14:35:00,79.0,76.8,29.70,NE,54,15.0,15.0,93,0.05,,BKN030,0.52,329.00,VWS V14.01,2013-02-16 04:35:00,
2013-02-16 14:40:00,79.4,77.2,29.70,NE,53,15.0,17.0,93,0.05,,BKN030,0.52,536.00,VWS V14.01,2013-02-16 04:40:00,
2013-02-16 14:45:00,79.8,77.6,29.70,ENE,58,16.0,17.0,93,0.05,,BKN030,0.52,817.00,VWS V14.01,2013-02-16 04:45:00,
2013-02-16 14:50:00,80.3,77.1,29.70,NE,43,18.0,18.0,90,0.01,,BKN030,0.52,591.00,VWS V14.01,2013-02-16 04:50:00,
2013-02-16 14:55:00,80.7,76.8,29.70,NE,52,17.0,18.0,88,0.01,,BKN030,0.52,417.00,VWS V14.01,2013-02-16 04:55:00,
2013-02-16 15:00:00,81.2,77.3,29.70,NE,54,14.0,19.0,88,0.01,,BKN030,0.52,589.00,VWS V14.01,2013-02-16 05:00:00,
2013-02-16 15:05:00,81.5,77.3,29.70,NE,53,14.0,17.0,87,0.00,,BKN080,0.52,533.00,VWS V14.01,2013-02-16 05:05:00,
2013-02-16 15:10:00,81.8,77.2,29.70,NE,46,13.0,19.0,86,0.00,,BKN080,0.52,717.00,VWS V14.01,2013-02-16 05:10:00,
2013-02-16 15:15:00,82.0,77.1,29.70,NE,47,12.0,19.0,85,0.00,,BKN080,0.52,592.00,VWS V14.01,2013-02-16 05:15:00,
2013-02-16 15:20:00,82.2,76.9,29.70,NE,54,15.0,21.0,84,0.00,,BKN080,0.52,434.00,VWS V14.01,2013-02-16 05:20:00,
2013-02-16 15:24:00,82.2,76.5,29.70,ENE,57,17.0,21.0,83,0.00,,BKN080,0.52,401.00,VWS V14.01,2013-02-16 05:24:00,
2013-02-16 15:29:00,82.2,76.5,29.70,ENE,58,15.0,21.0,83,0.00,,BKN080,0.52,388.00,VWS V14.01,2013-02-16 05:29:00,
2013-02-16 15:34:00,82.5,77.2,29.70,NE,53,13.0,18.0,84,0.00,,BKN080,0.52,425.00,VWS V14.01,2013-02-16 05:34:00,
2013-02-16 15:39:00,82.4,77.4,29.70,ENE,57,14.0,19.0,85,0.00,,BKN080,0.52,325.00,VWS V14.01,2013-02-16 05:39:00,
2013-02-16 15:44:00,82.5,77.9,29.70,ENE,61,16.0,19.0,86,0.00,,BKN080,0.52,279.00,VWS V14.01,2013-02-16 05:44:00,
2013-02-16 15:49:00,82.3,77.7,29.70,ENE,59,19.0,20.0,86,0.00,,BKN080,0.52,209.00,VWS V14.01,2013-02-16 05:49:00,
2013-02-16 15:54:00,81.9,76.6,29.70,ENE,57,20.0,22.0,84,0.00,,BKN080,0.52,438.00,VWS V14.01,2013-02-16 05:54:00,
2013-02-16 15:59:00,82.0,76.7,29.70,ENE,61,20.0,22.0,84,0.00,,BKN080,0.52,432.00,VWS V14.01,2013-02-16 05:59:00,
2013-02-16 16:04:00,81.6,76.7,29.70,NE,46,17.0,20.0,85,0.00,,BKN075,0.52,369.00,VWS V14.01,2013-02-16 06:04:00,
2013-02-16 16:09:00,81.3,76.7,29.70,NE,40,17.0,20.0,86,0.00,,BKN075,0.52,633.00,VWS V14.01,2013-02-16 06:09:00,
2013-02-16 16:14:00,80.9,75.3,29.70,NE,41,14.0,21.0,83,0.00,,BKN075,0.52,320.00,VWS V14.01,2013-02-16 06:14:00,
2013-02-16 16:19:00,80.8,75.9,29.71,NE,44,21.0,24.0,85,0.00,,BKN075,0.52,130.00,VWS V14.01,2013-02-16 06:19:00,
2013-02-16 16:24:00,80.0,75.8,29.71,NE,42,17.0,25.0,87,0.00,,BKN075,0.52,141.00,VWS V14.01,2013-02-16 06:24:00,
2013-02-16 16:29:00,79.4,75.9,29.71,NE,40,13.0,25.0,89,0.01,,BKN075,0.53,151.00,VWS V14.01,2013-02-16 06:29:00,
2013-02-16 16:34:00,79.6,76.4,29.71,NE,45,14.0,17.0,90,0.01,,BKN075,0.53,123.00,VWS V14.01,2013-02-16 06:34:00,
2013-02-16 16:39:00,80.0,76.8,29.71,ENE,63,15.0,20.0,90,0.01,,BKN075,0.53,123.00,VWS V14.01,2013-02-16 06:39:00,
2013-02-16 16:44:00,80.1,76.9,29.71,ENE,63,17.0,21.0,90,0.01,,BKN075,0.53,127.00,VWS V14.01,2013-02-16 06:44:00,
2013-02-16 16:49:00,80.2,77.0,29.71,NE,48,17.0,18.0,90,0.01,,BKN075,0.53,193.00,VWS V14.01,2013-02-16 06:49:00,
2013-02-16 16:54:00,80.1,76.9,29.71,NE,44,16.0,19.0,90,0.01,,BKN075,0.53,156.00,VWS V14.01,2013-02-16 06:54:00,
2013-02-16 16:59:00,80.3,77.1,29.71,NE,37,15.0,19.0,90,0.01,,BKN075,0.53,114.00,VWS V14.01,2013-02-16 06:59:00,
2013-02-16 17:04:00,80.2,76.3,29.71,NE,39,13.0,19.0,88,0.01,,-RA,0.53,174.00,VWS V14.01,2013-02-16 07:04:00,
2013-02-16 17:09:00,80.7,76.5,29.71,NE,44,16.0,19.0,87,0.01,,-RA,0.53,272.00,VWS V14.01,2013-02-16 07:09:00,
2013-02-16 17:14:00,80.8,76.2,29.71,NE,55,17.0,19.0,86,0.01,,-RA,0.53,211.00,VWS V14.01,2013-02-16 07:14:00,
2013-02-16 17:19:00,81.0,76.1,29.71,NE,54,16.0,19.0,85,0.01,,-RA,0.53,213.00,VWS V14.01,2013-02-16 07:19:00,
2013-02-16 17:24:00,81.2,76.3,29.71,NE,50,15.0,19.0,85,0.01,,-RA,0.53,199.00,VWS V14.01,2013-02-16 07:24:00,
2013-02-16 17:29:00,81.4,76.5,29.71,NE,48,13.0,19.0,85,0.01,,-RA,0.53,127.00,VWS V14.01,2013-02-16 07:29:00,
2013-02-16 17:34:00,81.3,76.4,29.71,NE,37,15.0,20.0,85,0.00,,-RA,0.53,111.00,VWS V14.01,2013-02-16 07:34:00,
2013-02-16 17:39:00,81.2,76.6,29.71,NE,44,17.0,20.0,86,0.00,,-RA,0.53,65.00,VWS V14.01,2013-02-16 07:39:00,
2013-02-16 17:44:00,81.1,76.5,29.71,NE,49,20.0,21.0,86,0.00,,-RA,0.53,60.00,VWS V14.01,2013-02-16 07:44:00,
2013-02-16 17:49:00,81.0,76.8,29.72,NE,49,19.0,19.0,87,0.00,,-RA,0.53,58.00,VWS V14.01,2013-02-16 07:49:00,
2013-02-16 17:54:00,81.0,76.8,29.72,NE,50,15.0,21.0,87,0.00,,-RA,0.53,40.00,VWS V14.01,2013-02-16 07:54:00,
2013-02-16 17:59:00,81.0,77.1,29.72,NE,51,17.0,21.0,88,0.00,,-RA,0.53,30.00,VWS V14.01,2013-02-16 07:59:00,
2013-02-16 18:04:00,80.9,77.0,29.72,NE,49,15.0,19.0,88,0.00,,BKN070,0.53,25.00,VWS V14.01,2013-02-16 08:04:00,
2013-02-16 18:09:00,80.9,77.0,29.72,NE,48,13.0,19.0,88,0.00,,BKN070,0.53,18.00,VWS V14.01,2013-02-16 08:09:00,
2013-02-16 18:14:00,80.7,76.5,29.72,NE,44,18.0,19.0,87,0.00,,BKN070,0.53,12.00,VWS V14.01,2013-02-16 08:14:00,
2013-02-16 18:19:00,80.7,76.5,29.73,NE,46,16.0,19.0,87,0.00,,BKN070,0.53,7.00,VWS V14.01,2013-02-16 08:19:00,
2013-02-16 18:24:00,80.6,76.4,29.73,NE,37,14.0,19.0,87,0.00,,BKN070,0.53,0.00,VWS V14.01,2013-02-16 08:24:00,
2013-02-16 18:29:00,80.5,76.6,29.73,NE,49,14.0,19.0,88,0.00,,BKN070,0.53,0.00,VWS V14.01,2013-02-16 08:29:00,
2013-02-16 18:34:00,80.5,76.6,29.73,NE,41,14.0,16.0,88,0.00,,BKN070,0.53,0.00,VWS V14.01,2013-02-16 08:34:00,
2013-02-16 18:39:00,80.3,76.4,29.73,NE,36,14.0,17.0,88,0.00,,BKN070,0.53,0.00,VWS V14.01,2013-02-16 08:39:00,
2013-02-16 18:45:00,80.4,76.9,29.73,NE,38,15.0,17.0,89,0.00,,BKN070,0.53,0.00,VWS V14.01,2013-02-16 08:45:00,
2013-02-16 18:50:00,80.4,76.9,29.73,NNE,30,14.0,16.0,89,0.00,,BKN070,0.53,0.00,VWS V14.01,2013-02-16 08:50:00,
2013-02-16 18:55:00,80.5,77.3,29.73,NE,41,16.0,16.0,90,0.00,,BKN070,0.53,0.00,VWS V14.01,2013-02-16 08:55:00,
2013-02-16 19:00:00,80.5,77.0,29.73,NE,43,16.0,18.0,89,0.00,,BKN070,0.53,0.00,VWS V14.01,2013-02-16 09:00:00,
2013-02-16 19:05:00,80.7,77.2,29.74,NE,46,17.0,19.0,89,0.00,,BKN085,0.53,0.00,VWS V14.01,2013-02-16 09:05:00,
2013-02-16 19:10:00,80.6,76.7,29.74,NE,43,17.0,19.0,88,0.00,,BKN085,0.53,0.00,VWS V14.01,2013-02-16 09:10:00,
2013-02-16 19:15:00,80.6,76.7,29.74,NE,50,13.0,20.0,88,0.00,,BKN085,0.53,0.00,VWS V14.01,2013-02-16 09:15:00,
2013-02-16 19:20:00,80.8,76.9,29.74,NE,43,19.0,22.0,88,0.00,,BKN085,0.53,0.00,VWS V14.01,2013-02-16 09:20:00,
2013-02-16 19:25:00,80.9,77.0,29.74,NE,55,16.0,22.0,88,0.00,,BKN085,0.53,0.00,VWS V14.01,2013-02-16 09:25:00,
2013-02-16 19:30:00,80.9,77.0,29.74,NE,41,16.0,22.0,88,0.00,,BKN085,0.53,0.00,VWS V14.01,2013-02-16 09:30:00,
2013-02-16 19:35:00,81.0,77.1,29.74,NE,45,12.0,19.0,88,0.00,,BKN085,0.53,0.00,VWS V14.01,2013-02-16 09:35:00,
2013-02-16 19:40:00,80.9,77.0,29.74,NE,48,16.0,20.0,88,0.00,,BKN085,0.53,0.00,VWS V14.01,2013-02-16 09:40:00,
2013-02-16 19:45:00,80.9,77.0,29.74,NE,52,17.0,22.0,88,0.00,,BKN085,0.53,0.00,VWS V14.01,2013-02-16 09:45:00,
2013-02-16 19:50:00,81.0,77.5,29.75,NE,39,17.0,18.0,89,0.00,,BKN085,0.53,0.00,VWS V14.01,2013-02-16 09:50:00,
2013-02-16 19:55:00,80.8,76.9,29.75,NE,40,14.0,21.0,88,0.00,,BKN085,0.53,0.00,VWS V14.01,2013-02-16 09:55:00,
2013-02-16 20:00:00,80.9,77.4,29.75,NE,46,13.0,21.0,89,0.00,,BKN085,0.53,0.00,VWS V14.01,2013-02-16 10:00:00,
2013-02-16 20:05:00,80.9,77.0,29.75,NE,50,16.0,18.0,88,0.00,,BKN085,0.53,0.00,VWS V14.01,2013-02-16 10:05:00,
2013-02-16 20:10:00,81.0,77.5,29.75,NE,51,14.0,18.0,89,0.00,,BKN085,0.53,0.00,VWS V14.01,2013-02-16 10:10:00,
2013-02-16 20:15:00,80.9,77.0,29.75,NE,46,14.0,19.0,88,0.00,,BKN085,0.53,0.00,VWS V14.01,2013-02-16 10:15:00,
2013-02-16 20:20:00,81.0,77.5,29.75,NE,40,13.0,17.0,89,0.00,,BKN085,0.53,0.00,VWS V14.01,2013-02-16 10:20:00,
2013-02-16 20:25:00,81.1,77.6,29.75,NE,43,14.0,20.0,89,0.00,,BKN085,0.53,0.00,VWS V14.01,2013-02-16 10:25:00,
2013-02-16 20:30:00,81.2,77.3,29.75,NE,48,15.0,21.0,88,0.00,,BKN085,0.53,0.00,VWS V14.01,2013-02-16 10:30:00,
2013-02-16 20:35:00,81.2,77.0,29.76,NE,42,19.0,22.0,87,0.00,,BKN085,0.53,0.00,VWS V14.01,2013-02-16 10:35:00,
2013-02-16 20:40:00,81.3,77.1,29.76,NE,44,20.0,24.0,87,0.00,,BKN085,0.53,0.00,VWS V14.01,2013-02-16 10:40:00,
2013-02-16 20:45:00,81.3,77.1,29.76,NE,36,19.0,24.0,87,0.00,,BKN085,0.53,0.00,VWS V14.01,2013-02-16 10:45:00,
2013-02-16 20:50:00,81.3,77.1,29.76,NE,40,21.0,21.0,87,0.00,,BKN085,0.53,0.00,VWS V14.01,2013-02-16 10:50:00,
2013-02-16 20:55:00,81.3,77.1,29.76,NE,40,20.0,21.0,87,0.00,,BKN085,0.53,0.00,VWS V14.01,2013-02-16 10:55:00,
2013-02-16 21:00:00,81.3,77.1,29.76,NE,41,16.0,22.0,87,0.00,,BKN085,0.53,0.00,VWS V14.01,2013-02-16 11:00:00,
2013-02-16 21:05:00,81.2,76.6,29.76,NNE,30,18.0,21.0,86,0.00,,-RA,0.53,0.00,VWS V14.01,2013-02-16 11:05:00,
2013-02-16 21:10:00,81.3,76.7,29.76,NE,38,20.0,21.0,86,0.00,,-RA,0.53,0.00,VWS V14.01,2013-02-16 11:10:00,
2013-02-16 21:15:00,81.4,77.2,29.76,NE,37,19.0,21.0,87,0.00,,-RA,0.53,0.00,VWS V14.01,2013-02-16 11:15:00,
2013-02-16 21:20:00,81.4,77.2,29.76,NE,37,16.0,20.0,87,0.00,,-RA,0.53,0.00,VWS V14.01,2013-02-16 11:20:00,
2013-02-16 21:25:00,81.4,77.2,29.76,NE,44,20.0,21.0,87,0.00,,-RA,0.53,0.00,VWS V14.01,2013-02-16 11:25:00,
2013-02-16 21:30:00,81.3,77.1,29.76,NE,36,21.0,23.0,87,0.00,,-RA,0.53,0.00,VWS V14.01,2013-02-16 11:30:00,
2013-02-16 21:35:00,81.3,76.7,29.76,NE,41,16.0,22.0,86,0.00,,-RA,0.53,0.00,VWS V14.01,2013-02-16 11:35:00,
2013-02-16 21:40:00,81.4,76.8,29.76,NE,43,16.0,22.0,86,0.00,,-RA,0.53,0.00,VWS V14.01,2013-02-16 11:40:00,
2013-02-16 21:45:00,81.2,76.6,29.76,NNE,28,14.0,22.0,86,0.00,,-RA,0.53,0.00,VWS V14.01,2013-02-16 11:45:00,
2013-02-16 21:50:00,81.3,76.7,29.76,NE,36,19.0,21.0,86,0.00,,-RA,0.53,0.00,VWS V14.01,2013-02-16 11:50:00,
2013-02-16 21:55:00,81.2,76.6,29.76,NE,38,18.0,21.0,86,0.00,,-RA,0.53,0.00,VWS V14.01,2013-02-16 11:55:00,
2013-02-16 22:00:00,81.4,77.2,29.76,NE,41,18.0,22.0,87,0.00,,-RA,0.53,0.00,VWS V14.01,2013-02-16 12:00:00,
2013-02-16 22:05:00,81.3,77.1,29.76,NE,36,21.0,21.0,87,0.00,,SCT080,0.53,0.00,VWS V14.01,2013-02-16 12:05:00,
2013-02-16 22:10:00,81.2,76.6,29.76,NE,43,18.0,22.0,86,0.00,,SCT080,0.53,0.00,VWS V14.01,2013-02-16 12:10:00,
2013-02-16 22:15:00,81.3,76.7,29.76,NE,41,17.0,22.0,86,0.00,,SCT080,0.53,0.00,VWS V14.01,2013-02-16 12:15:00,
2013-02-16 22:20:00,81.2,76.6,29.76,NE,34,17.0,21.0,86,0.00,,SCT080,0.53,0.00,VWS V14.01,2013-02-16 12:20:00,
2013-02-16 22:25:00,81.2,76.6,29.76,NE,45,21.0,22.0,86,0.00,,SCT080,0.53,0.00,VWS V14.01,2013-02-16 12:25:00,
2013-02-16 22:30:00,81.3,76.7,29.76,NE,42,17.0,24.0,86,0.00,,SCT080,0.53,0.00,VWS V14.01,2013-02-16 12:30:00,
2013-02-16 22:35:00,81.3,76.7,29.76,NNE,33,17.0,20.0,86,0.00,,SCT080,0.53,0.00,VWS V14.01,2013-02-16 12:35:00,
2013-02-16 22:40:00,81.4,77.2,29.76,NE,39,19.0,20.0,87,0.00,,SCT080,0.53,0.00,VWS V14.01,2013-02-16 12:40:00,
2013-02-16 22:45:00,81.2,76.6,29.76,NE,34,18.0,21.0,86,0.00,,SCT080,0.53,0.00,VWS V14.01,2013-02-16 12:45:00,
2013-02-16 22:50:00,81.2,76.3,29.76,NE,46,19.0,22.0,85,0.00,,SCT080,0.53,0.00,VWS V14.01,2013-02-16 12:50:00,
2013-02-16 22:55:00,81.2,76.3,29.76,NE,45,18.0,22.0,85,0.00,,SCT080,0.53,0.00,VWS V14.01,2013-02-16 12:55:00,
2013-02-16 23:00:00,81.4,76.8,29.76,NE,48,17.0,22.0,86,0.00,,SCT080,0.53,0.00,VWS V14.01,2013-02-16 13:00:00,
2013-02-16 23:05:00,81.2,76.6,29.76,NE,38,18.0,20.0,86,0.00,,SCT080,0.53,0.00,VWS V14.01,2013-02-16 13:05:00,
2013-02-16 23:10:00,81.3,76.7,29.76,NE,49,17.0,21.0,86,0.00,,SCT080,0.53,0.00,VWS V14.01,2013-02-16 13:10:00,
2013-02-16 23:15:00,81.4,77.2,29.76,NNE,31,16.0,21.0,87,0.00,,SCT080,0.53,0.00,VWS V14.01,2013-02-16 13:15:00,
2013-02-16 23:20:00,81.3,77.1,29.76,NNE,33,18.0,21.0,87,0.00,,SCT080,0.53,0.00,VWS V14.01,2013-02-16 13:20:00,
2013-02-16 23:25:00,81.2,76.6,29.76,NE,38,16.0,23.0,86,0.00,,SCT080,0.53,0.00,VWS V14.01,2013-02-16 13:25:00,
2013-02-16 23:30:00,81.2,77.0,29.76,NE,40,15.0,23.0,87,0.00,,SCT080,0.53,0.00,VWS V14.01,2013-02-16 13:30:00,
2013-02-16 23:35:00,81.2,77.0,29.76,NE,40,15.0,22.0,87,0.00,,SCT080,0.53,0.00,VWS V14.01,2013-02-16 13:35:00,
2013-02-16 23:40:00,81.3,77.1,29.76,NE,47,15.0,22.0,87,0.00,,SCT080,0.53,0.00,VWS V14.01,2013-02-16 13:40:00,
2013-02-16 23:45:00,81.2,77.0,29.76,NE,41,16.0,23.0,87,0.00,,SCT080,0.53,0.00,VWS V14.01,2013-02-16 13:45:00,
2013-02-16 23:51:00,81.2,77.0,29.76,NE,36,20.0,23.0,87,0.00,,SCT080,0.53,0.00,VWS V14.01,2013-02-16 13:51:00,
2013-02-16 23:56:00,81.2,77.0,29.76,NNE,30,15.0,23.0,87,0.00,,SCT080,0.53,0.00,VWS V14.01,2013-02-16 13:56:00,